Terug naar catalogus

FENGYUN 1C DEB

ActiefPO
NORAD 30168·DEBRIS·🇨🇳 China

Gelanceerd May 10, 1999 vanaf Taiyuan Satellite Launch Center

Loading…

Volgende Passages (komende 24 uur)

TLE

VersSource: Space-Track

Epoch: Sep 14, 2026, 01:29 UTC

1 30168U 99025TZ  26257.06193684  .00003883  00000-0  83729-3 0  9996
2 30168  97.3654 302.2051 0093601   5.5859 354.6362 14.56172016 23061

Volg FENGYUN 1C DEB in realtime met AllMySat

Download on the App Store